Time,TemperatureF,DewpointF,PressureIn,WindDirection,WindDirectionDegrees,WindSpeedMPH,WindSpeedGustMPH,Humidity,HourlyPrecipIn,Conditions,Clouds,dailyrainin,SoftwareType,DateUTC
2013-08-28 00:00:00,77.9,71.2,29.91,North,9,0.0,0.0,80,0.00,CLR,,0.00,WeatherDisplay:10.37,2013-08-28 05:00:00,
2013-08-28 00:05:00,77.7,71.0,29.91,North,9,0.0,0.0,80,0.00,CLR,,0.00,WeatherDisplay:10.37,2013-08-28 05:05:00,
2013-08-28 00:10:00,77.6,71.3,29.91,North,9,0.0,0.0,81,0.00,CLR,,0.00,WeatherDisplay:10.37,2013-08-28 05:10:00,
2013-08-28 00:15:00,77.4,71.1,29.91,North,9,0.0,0.0,81,0.00,CLR,,0.00,WeatherDisplay:10.37,2013-08-28 05:15:00,
2013-08-28 00:20:00,77.0,71.1,29.91,North,9,0.0,0.0,82,0.00,CLR,,0.00,WeatherDisplay:10.37,2013-08-28 05:20:00,
2013-08-28 00:25:00,76.8,70.9,29.91,North,9,1.1,0.0,82,0.00,CLR,,0.00,WeatherDisplay:10.37,2013-08-28 05:25:00,
2013-08-28 00:30:00,76.7,71.1,29.91,North,9,0.0,0.0,83,0.00,CLR,,0.00,WeatherDisplay:10.37,2013-08-28 05:30:00,
2013-08-28 00:35:00,76.5,70.9,29.91,North,9,0.0,0.0,83,0.00,CLR,,0.00,WeatherDisplay:10.37,2013-08-28 05:35:00,
2013-08-28 00:40:00,76.1,70.6,29.91,North,9,0.0,0.0,83,0.00,CLR,,0.00,WeatherDisplay:10.37,2013-08-28 05:40:00,
2013-08-28 00:45:00,76.0,70.8,29.91,North,9,0.0,0.0,84,0.00,CLR,,0.00,WeatherDisplay:10.37,2013-08-28 05:45:00,
2013-08-28 00:50:00,75.8,71.0,29.91,North,9,0.0,0.0,85,0.00,CLR,,0.00,WeatherDisplay:10.37,2013-08-28 05:50:00,
2013-08-28 00:55:00,75.8,71.0,29.91,North,9,0.0,0.0,85,0.00,CLR,,0.00,WeatherDisplay:10.37,2013-08-28 05:55:00,
2013-08-28 01:00:00,75.6,70.8,29.91,North,9,0.0,0.0,85,0.00,CLR,,0.00,WeatherDisplay:10.37,2013-08-28 06:00:00,
2013-08-28 01:05:00,75.8,71.3,29.91,North,9,0.0,0.1,86,0.00,CLR,,0.00,WeatherDisplay:10.37,2013-08-28 06:05:00,
2013-08-28 01:10:00,75.8,71.3,29.91,North,9,0.0,0.0,86,0.00,CLR,,0.00,WeatherDisplay:10.37,2013-08-28 06:10:00,
2013-08-28 01:15:00,75.6,71.1,29.92,North,9,0.0,0.0,86,0.00,CLR,,0.00,WeatherDisplay:10.37,2013-08-28 06:15:00,
2013-08-28 01:20:00,75.4,70.9,29.92,North,9,0.0,0.0,86,0.00,CLR,,0.00,WeatherDisplay:10.37,2013-08-28 06:20:00,
2013-08-28 01:25:00,75.3,70.8,29.92,North,9,0.0,0.0,86,0.00,CLR,,0.00,WeatherDisplay:10.37,2013-08-28 06:25:00,
2013-08-28 01:30:00,75.3,70.8,29.91,North,9,0.0,0.0,86,0.00,CLR,,0.00,WeatherDisplay:10.37,2013-08-28 06:30:00,
2013-08-28 01:35:00,75.1,71.0,29.91,North,9,0.0,0.0,87,0.00,CLR,,0.00,WeatherDisplay:10.37,2013-08-28 06:35:00,
2013-08-28 01:40:00,75.1,71.0,29.91,North,9,0.0,0.0,87,0.00,CLR,,0.00,WeatherDisplay:10.37,2013-08-28 06:40:00,
2013-08-28 01:45:00,74.9,70.8,29.91,North,9,0.0,0.0,87,0.00,CLR,,0.00,WeatherDisplay:10.37,2013-08-28 06:45:00,
2013-08-28 01:50:00,74.9,70.8,29.91,North,9,0.0,0.0,87,0.00,CLR,,0.00,WeatherDisplay:10.37,2013-08-28 06:50:00,
2013-08-28 01:55:00,74.7,70.6,29.91,North,9,1.1,1.1,87,0.00,CLR,,0.00,WeatherDisplay:10.37,2013-08-28 06:55:00,
2013-08-28 02:00:00,74.7,70.6,29.91,North,9,0.0,0.0,87,0.00,CLR,,0.00,WeatherDisplay:10.37,2013-08-28 07:00:00,
2013-08-28 02:05:00,74.6,70.5,29.91,North,9,0.0,0.0,87,0.00,CLR,,0.00,WeatherDisplay:10.37,2013-08-28 07:05:00,
2013-08-28 02:10:00,74.4,70.6,29.91,North,9,0.0,0.0,88,0.00,CLR,,0.00,WeatherDisplay:10.37,2013-08-28 07:10:00,
2013-08-28 02:15:00,74.2,70.4,29.91,North,9,0.0,0.0,88,0.00,CLR,,0.00,WeatherDisplay:10.37,2013-08-28 07:15:00,
2013-08-28 02:20:00,74.0,70.2,29.91,North,9,0.0,0.0,88,0.00,CLR,,0.00,WeatherDisplay:10.37,2013-08-28 07:20:00,
2013-08-28 02:25:00,74.0,70.6,29.91,North,9,0.0,0.0,89,0.00,CLR,,0.00,WeatherDisplay:10.37,2013-08-28 07:25:00,
2013-08-28 02:30:00,73.9,70.5,29.91,North,9,0.0,0.0,89,0.00,CLR,,0.00,WeatherDisplay:10.37,2013-08-28 07:30:00,
2013-08-28 02:35:00,73.9,70.5,29.91,North,9,0.0,0.0,89,0.00,CLR,,0.00,WeatherDisplay:10.37,2013-08-28 07:35:00,
2013-08-28 02:40:00,73.9,70.5,29.91,North,9,0.0,0.0,89,0.00,CLR,,0.00,WeatherDisplay:10.37,2013-08-28 07:40:00,
2013-08-28 02:45:00,73.9,70.5,29.91,North,9,0.0,0.0,89,0.00,CLR,,0.00,WeatherDisplay:10.37,2013-08-28 07:45:00,
2013-08-28 02:50:00,73.7,70.3,29.91,North,9,0.0,0.0,89,0.00,CLR,,0.00,WeatherDisplay:10.37,2013-08-28 07:50:00,
2013-08-28 02:55:00,73.5,70.1,29.91,North,9,0.0,0.0,89,0.00,CLR,,0.00,WeatherDisplay:10.37,2013-08-28 07:55:00,
2013-08-28 03:00:00,73.5,70.1,29.92,North,9,0.0,0.0,89,0.00,CLR,,0.00,WeatherDisplay:10.37,2013-08-28 08:00:00,
2013-08-28 03:05:00,73.3,70.2,29.92,North,9,0.0,0.0,90,0.00,CLR,,0.00,WeatherDisplay:10.37,2013-08-28 08:05:00,
2013-08-28 03:10:00,73.3,70.2,29.91,North,9,0.0,0.0,90,0.00,CLR,,0.00,WeatherDisplay:10.37,2013-08-28 08:10:00,
2013-08-28 03:15:00,73.3,70.2,29.92,North,9,0.0,0.0,90,0.00,CLR,,0.00,WeatherDisplay:10.37,2013-08-28 08:15:00,
2013-08-28 03:20:00,73.2,70.1,29.92,North,9,0.0,0.0,90,0.00,CLR,,0.00,WeatherDisplay:10.37,2013-08-28 08:20:00,
2013-08-28 03:25:00,73.2,70.1,29.92,North,9,0.0,0.0,90,0.00,CLR,,0.00,WeatherDisplay:10.37,2013-08-28 08:25:00,
2013-08-28 03:30:00,73.0,69.9,29.92,North,9,0.0,0.0,90,0.00,CLR,,0.00,WeatherDisplay:10.37,2013-08-28 08:30:00,
2013-08-28 03:35:00,73.0,70.2,29.91,North,9,0.0,0.0,91,0.00,CLR,,0.00,WeatherDisplay:10.37,2013-08-28 08:35:00,
2013-08-28 03:40:00,72.7,69.9,29.91,North,9,0.0,0.0,91,0.00,CLR,,0.00,WeatherDisplay:10.37,2013-08-28 08:40:00,
2013-08-28 03:45:00,72.7,69.9,29.92,North,9,0.0,0.0,91,0.00,CLR,,0.00,WeatherDisplay:10.37,2013-08-28 08:45:00,
2013-08-28 03:50:00,72.5,69.7,29.92,North,9,0.0,0.0,91,0.00,CLR,,0.00,WeatherDisplay:10.37,2013-08-28 08:50:00,
2013-08-28 03:55:00,72.3,69.5,29.92,North,9,0.0,0.0,91,0.00,CLR,,0.00,WeatherDisplay:10.37,2013-08-28 08:55:00,
2013-08-28 04:00:00,72.1,69.3,29.92,North,9,0.0,0.0,91,0.00,CLR,,0.00,WeatherDisplay:10.37,2013-08-28 09:00:00,
2013-08-28 04:05:00,72.0,69.5,29.92,North,9,0.0,0.0,92,0.00,CLR,,0.00,WeatherDisplay:10.37,2013-08-28 09:05:00,
2013-08-28 04:10:00,72.1,69.6,29.92,North,9,0.0,0.0,92,0.00,CLR,,0.00,WeatherDisplay:10.37,2013-08-28 09:10:00,
2013-08-28 04:15:00,72.1,69.6,29.92,North,9,0.0,0.0,92,0.00,CLR,,0.00,WeatherDisplay:10.37,2013-08-28 09:15:00,
2013-08-28 04:20:00,72.1,69.6,29.92,North,9,0.0,0.0,92,0.00,CLR,,0.00,WeatherDisplay:10.37,2013-08-28 09:20:00,
2013-08-28 04:25:00,72.0,69.5,29.92,North,9,0.0,0.0,92,0.00,CLR,,0.00,WeatherDisplay:10.37,2013-08-28 09:25:00,
2013-08-28 04:30:00,71.6,69.2,29.93,North,9,0.0,0.0,92,0.00,CLR,,0.00,WeatherDisplay:10.37,2013-08-28 09:30:00,
2013-08-28 04:34:00,71.6,69.2,29.93,North,9,0.0,0.0,92,0.00,CLR,,0.00,WeatherDisplay:10.37,2013-08-28 09:34:00,
2013-08-28 04:39:00,71.5,69.1,29.93,North,9,0.0,0.0,92,0.00,CLR,,0.00,WeatherDisplay:10.37,2013-08-28 09:39:00,
2013-08-28 04:44:00,71.1,68.7,29.92,North,9,0.0,0.0,92,0.00,CLR,,0.00,WeatherDisplay:10.37,2013-08-28 09:44:00,
2013-08-28 04:49:00,70.9,68.5,29.92,North,9,0.0,0.0,92,0.00,CLR,,0.00,WeatherDisplay:10.37,2013-08-28 09:49:00,
2013-08-28 04:54:00,70.8,68.4,29.92,North,9,0.0,0.0,92,0.00,CLR,,0.00,WeatherDisplay:10.37,2013-08-28 09:54:00,
2013-08-28 04:59:00,70.6,68.2,29.92,North,9,0.0,0.0,92,0.00,CLR,,0.00,WeatherDisplay:10.37,2013-08-28 09:59:00,
2013-08-28 05:04:00,70.4,68.3,29.92,North,9,0.0,0.0,93,0.00,CLR,,0.00,WeatherDisplay:10.37,2013-08-28 10:04:00,
2013-08-28 05:09:00,70.3,68.2,29.92,North,9,0.0,0.0,93,0.00,CLR,,0.00,WeatherDisplay:10.37,2013-08-28 10:09:00,
2013-08-28 05:14:00,70.1,68.0,29.92,North,9,0.0,0.0,93,0.00,CLR,,0.00,WeatherDisplay:10.37,2013-08-28 10:14:00,
2013-08-28 05:19:00,69.9,67.8,29.92,North,9,0.0,0.0,93,0.00,CLR,,0.00,WeatherDisplay:10.37,2013-08-28 10:19:00,
2013-08-28 05:24:00,69.9,67.8,29.92,North,9,0.0,0.0,93,0.00,CLR,,0.00,WeatherDisplay:10.37,2013-08-28 10:24:00,
2013-08-28 05:29:00,69.9,67.8,29.92,North,9,0.0,0.0,93,0.00,CLR,,0.00,WeatherDisplay:10.37,2013-08-28 10:29:00,
2013-08-28 05:34:00,69.9,67.8,29.93,North,9,0.0,0.0,93,0.00,CLR,,0.00,WeatherDisplay:10.37,2013-08-28 10:34:00,
2013-08-28 05:39:00,69.9,68.1,29.93,North,9,0.0,0.0,94,0.00,CLR,,0.00,WeatherDisplay:10.37,2013-08-28 10:39:00,
2013-08-28 05:44:00,69.9,68.1,29.93,North,9,0.0,0.0,94,0.00,CLR,,0.00,WeatherDisplay:10.37,2013-08-28 10:44:00,
2013-08-28 05:49:00,69.9,68.1,29.93,North,9,0.0,0.0,94,0.00,CLR,,0.00,WeatherDisplay:10.37,2013-08-28 10:49:00,
2013-08-28 05:54:00,69.9,68.1,29.93,North,9,0.0,0.0,94,0.00,CLR,,0.00,WeatherDisplay:10.37,2013-08-28 10:54:00,
2013-08-28 05:59:00,69.8,68.0,29.93,North,9,0.0,0.0,94,0.00,CLR,,0.00,WeatherDisplay:10.37,2013-08-28 10:59:00,
2013-08-28 06:04:00,69.8,68.0,29.94,North,9,0.0,0.0,94,0.00,CLR,,0.00,WeatherDisplay:10.37,2013-08-28 11:04:00,
2013-08-28 06:09:00,69.9,68.1,29.94,North,9,0.0,0.0,94,0.00,CLR,,0.00,WeatherDisplay:10.37,2013-08-28 11:09:00,
2013-08-28 06:14:00,69.9,68.1,29.94,North,9,0.0,0.0,94,0.00,CLR,,0.00,WeatherDisplay:10.37,2013-08-28 11:14:00,
2013-08-28 06:19:00,69.9,68.1,29.94,North,9,0.0,0.0,94,0.00,CLR,,0.00,WeatherDisplay:10.37,2013-08-28 11:19:00,
2013-08-28 06:24:00,69.9,68.1,29.94,North,9,0.0,0.0,94,0.00,CLR,,0.00,WeatherDisplay:10.37,2013-08-28 11:24:00,
2013-08-28 06:29:00,69.9,68.4,29.94,North,9,0.0,0.0,95,0.00,CLR,,0.00,WeatherDisplay:10.37,2013-08-28 11:29:00,
2013-08-28 06:34:00,69.9,68.4,29.95,North,9,0.0,0.0,95,0.00,CLR,,0.00,WeatherDisplay:10.37,2013-08-28 11:34:00,
2013-08-28 06:39:00,69.9,68.4,29.95,North,9,0.0,0.0,95,0.00,CLR,,0.00,WeatherDisplay:10.37,2013-08-28 11:39:00,
2013-08-28 06:44:00,69.9,68.1,29.95,North,9,0.0,0.0,94,0.00,CLR,,0.00,WeatherDisplay:10.37,2013-08-28 11:44:00,
2013-08-28 06:49:00,69.8,68.3,29.95,North,9,0.0,0.0,95,0.00,CLR,,0.00,WeatherDisplay:10.37,2013-08-28 11:49:00,
2013-08-28 06:54:00,69.8,68.3,29.95,North,9,0.0,0.0,95,0.00,CLR,,0.00,WeatherDisplay:10.37,2013-08-28 11:54:00,
2013-08-28 06:59:00,69.6,68.1,29.95,North,9,0.0,0.0,95,0.00,CLR,,0.00,WeatherDisplay:10.37,2013-08-28 11:59:00,
2013-08-28 07:04:00,69.6,68.1,29.95,North,9,0.0,0.0,95,0.00,CLR,,0.00,WeatherDisplay:10.37,2013-08-28 12:04:00,
2013-08-28 07:09:00,69.8,68.3,29.95,North,9,0.0,0.0,95,0.00,CLR,,0.00,WeatherDisplay:10.37,2013-08-28 12:09:00,
2013-08-28 07:14:00,69.8,68.3,29.95,North,9,0.0,0.0,95,0.00,CLR,,0.00,WeatherDisplay:10.37,2013-08-28 12:14:00,
2013-08-28 07:19:00,69.9,68.4,29.96,North,9,0.0,0.0,95,0.00,CLR,,0.00,WeatherDisplay:10.37,2013-08-28 12:19:00,
2013-08-28 07:24:00,70.1,68.6,29.97,North,9,0.0,0.0,95,0.00,CLR,,0.00,WeatherDisplay:10.37,2013-08-28 12:24:00,
2013-08-28 07:29:00,70.4,68.9,29.97,North,9,0.0,0.0,95,0.00,CLR,,0.00,WeatherDisplay:10.37,2013-08-28 12:29:00,
2013-08-28 07:34:00,70.6,69.1,29.97,North,9,0.0,0.0,95,0.00,CLR,,0.00,WeatherDisplay:10.37,2013-08-28 12:34:00,
2013-08-28 07:39:00,70.9,69.4,29.96,North,9,0.0,0.0,95,0.00,CLR,,0.00,WeatherDisplay:10.37,2013-08-28 12:39:00,
2013-08-28 07:44:00,70.9,69.4,29.96,North,9,0.0,0.0,95,0.00,CLR,,0.00,WeatherDisplay:10.37,2013-08-28 12:44:00,
2013-08-28 07:49:00,71.3,70.1,29.97,North,9,0.0,0.0,96,0.00,SCT,,0.00,WeatherDisplay:10.37,2013-08-28 12:49:00,
2013-08-28 07:54:00,71.6,70.4,29.97,North,9,0.0,0.0,96,0.00,SCT,,0.00,WeatherDisplay:10.37,2013-08-28 12:54:00,
2013-08-28 07:59:00,71.8,70.6,29.97,North,9,0.0,0.0,96,0.00,SCT,,0.00,WeatherDisplay:10.37,2013-08-28 12:59:00,
2013-08-28 08:04:00,72.1,70.9,29.97,North,9,0.0,0.0,96,0.00,OVC,,0.00,WeatherDisplay:10.37,2013-08-28 13:04:00,
2013-08-28 08:09:00,72.3,71.1,29.97,North,9,0.0,0.0,96,0.00,OVC,,0.00,WeatherDisplay:10.37,2013-08-28 13:09:00,
2013-08-28 08:14:00,72.5,71.3,29.97,North,9,0.0,0.0,96,0.00,OVC,,0.00,WeatherDisplay:10.37,2013-08-28 13:14:00,
2013-08-28 08:19:00,72.7,71.5,29.97,North,9,0.0,0.0,96,0.00,OVC,,0.00,WeatherDisplay:10.37,2013-08-28 13:19:00,
2013-08-28 08:24:00,72.8,71.3,29.97,North,9,0.0,0.0,95,0.00,OVC,,0.00,WeatherDisplay:10.37,2013-08-28 13:24:00,
2013-08-28 08:29:00,73.0,71.5,29.97,North,9,0.0,0.0,95,0.00,OVC,,0.00,WeatherDisplay:10.37,2013-08-28 13:29:00,
2013-08-28 08:34:00,73.3,71.8,29.98,North,9,2.3,2.3,95,0.00,OVC,,0.00,WeatherDisplay:10.37,2013-08-28 13:34:00,
2013-08-28 08:39:00,73.9,72.4,29.98,North,9,1.1,0.0,95,0.00,OVC,,0.00,WeatherDisplay:10.37,2013-08-28 13:39:00,
2013-08-28 08:44:00,74.4,72.9,29.98,North,9,0.0,0.0,95,0.00,OVC,,0.00,WeatherDisplay:10.37,2013-08-28 13:44:00,
2013-08-28 08:49:00,74.7,73.2,29.98,North,9,0.0,0.0,95,0.00,BKN,,0.00,WeatherDisplay:10.37,2013-08-28 13:49:00,
2013-08-28 08:54:00,74.9,72.7,29.98,North,9,0.0,0.0,93,0.00,OVC,,0.00,WeatherDisplay:10.37,2013-08-28 13:54:00,
2013-08-28 08:59:00,75.1,72.9,29.98,North,9,0.0,0.0,93,0.00,BKN,,0.00,WeatherDisplay:10.37,2013-08-28 13:59:00,
2013-08-28 09:04:00,75.3,72.8,29.98,South,191,0.0,0.0,92,0.00,OVC,,0.00,WeatherDisplay:10.37,2013-08-28 14:04:00,
2013-08-28 09:09:00,75.4,72.9,29.98,South,177,0.0,0.0,92,0.00,SCT,,0.00,WeatherDisplay:10.37,2013-08-28 14:09:00,
2013-08-28 09:14:00,75.6,72.8,29.98,South,186,0.0,0.0,91,0.00,SCT,,0.00,WeatherDisplay:10.37,2013-08-28 14:14:00,
2013-08-28 09:19:00,76.0,72.9,29.98,South,186,1.1,1.1,90,0.00,OVC,,0.00,WeatherDisplay:10.37,2013-08-28 14:19:00,
2013-08-28 09:24:00,76.3,72.8,29.98,South,186,0.0,0.0,89,0.00,OVC,,0.00,WeatherDisplay:10.37,2013-08-28 14:24:00,
2013-08-28 09:29:00,76.5,73.0,29.98,ESE,122,0.0,0.0,89,0.00,OVC,,0.00,WeatherDisplay:10.37,2013-08-28 14:29:00,
2013-08-28 09:34:00,76.8,73.0,29.99,SSE,158,0.0,0.0,88,0.00,OVC,,0.00,WeatherDisplay:10.37,2013-08-28 14:34:00,
2013-08-28 09:39:00,77.2,73.0,29.99,SSE,158,1.1,0.0,87,0.00,OVC,,0.00,WeatherDisplay:10.37,2013-08-28 14:39:00,
2013-08-28 09:44:00,77.6,73.1,29.99,SSE,158,0.0,0.0,86,0.00,OVC,,0.00,WeatherDisplay:10.37,2013-08-28 14:44:00,
2013-08-28 09:49:00,78.1,73.2,29.99,SSE,154,0.0,0.0,85,0.00,OVC,,0.00,WeatherDisplay:10.37,2013-08-28 14:49:00,
2013-08-28 09:54:00,79.0,73.7,29.99,SSE,154,0.0,0.0,84,0.00,OVC,,0.00,WeatherDisplay:10.37,2013-08-28 14:54:00,
2013-08-28 09:59:00,79.6,73.6,29.99,SSE,154,1.1,1.1,82,0.00,OVC,,0.00,WeatherDisplay:10.37,2013-08-28 14:59:00,
2013-08-28 10:04:00,80.3,73.6,30.00,SSE,157,9.2,9.2,80,0.00,OVC,,0.00,WeatherDisplay:10.37,2013-08-28 15:04:00,
2013-08-28 10:09:00,81.1,74.0,30.00,South,184,1.1,1.1,79,0.00,OVC,,0.00,WeatherDisplay:10.37,2013-08-28 15:09:00,
2013-08-28 10:14:00,81.8,73.9,30.00,South,186,1.1,0.0,77,0.00,OVC,,0.00,WeatherDisplay:10.37,2013-08-28 15:14:00,
2013-08-28 10:19:00,82.8,73.7,29.99,SSW,193,4.6,4.6,74,0.00,OVC,,0.00,WeatherDisplay:10.37,2013-08-28 15:19:00,
2013-08-28 10:24:00,83.6,74.0,29.99,SSW,204,5.8,5.8,73,0.00,OVC,,0.00,WeatherDisplay:10.37,2013-08-28 15:24:00,
2013-08-28 10:29:00,84.1,74.1,29.99,SSW,196,0.0,0.0,72,0.00,OVC,,0.00,WeatherDisplay:10.37,2013-08-28 15:29:00,
2013-08-28 10:34:00,84.9,74.0,30.00,SE,131,2.3,2.3,70,0.00,OVC,,0.00,WeatherDisplay:10.37,2013-08-28 15:34:00,
2013-08-28 10:39:00,85.3,73.5,30.00,South,186,1.1,0.0,68,0.00,OVC,,0.00,WeatherDisplay:10.37,2013-08-28 15:39:00,
2013-08-28 10:44:00,85.7,73.9,30.00,East,86,2.3,2.3,68,0.00,OVC,,0.00,WeatherDisplay:10.37,2013-08-28 15:44:00,
2013-08-28 10:49:00,86.1,73.9,30.00,SE,146,2.3,2.3,67,0.00,OVC,,0.00,WeatherDisplay:10.37,2013-08-28 15:49:00,
2013-08-28 10:54:00,86.5,74.2,30.00,South,187,3.5,3.5,67,0.00,OVC,,0.00,WeatherDisplay:10.37,2013-08-28 15:54:00,
2013-08-28 10:59:00,87.2,74.0,30.00,South,182,0.0,4.0,65,0.00,OVC,,0.00,WeatherDisplay:10.37,2013-08-28 15:59:00,
2013-08-28 11:04:00,87.4,74.2,30.00,South,171,0.0,0.0,65,0.00,SCT,,0.00,WeatherDisplay:10.37,2013-08-28 16:04:00,
2013-08-28 11:09:00,88.0,74.3,30.00,South,184,3.5,3.5,64,0.00,SCT,,0.00,WeatherDisplay:10.37,2013-08-28 16:09:00,
2013-08-28 11:14:00,88.0,73.8,30.00,South,176,5.8,5.8,63,0.00,SCT,,0.00,WeatherDisplay:10.37,2013-08-28 16:14:00,
2013-08-28 11:19:00,88.6,73.4,30.00,South,182,4.6,4.6,61,0.00,SCT,,0.00,WeatherDisplay:10.37,2013-08-28 16:19:00,
2013-08-28 11:24:00,88.6,73.9,30.00,South,175,2.3,2.3,62,0.00,SCT,,0.00,WeatherDisplay:10.37,2013-08-28 16:24:00,
2013-08-28 11:29:00,88.4,73.7,30.00,SSW,200,5.8,5.8,62,0.00,SCT,,0.00,WeatherDisplay:10.37,2013-08-28 16:29:00,
2013-08-28 11:34:00,88.6,73.9,30.00,SSW,200,0.0,0.0,62,0.00,CLR,,0.00,WeatherDisplay:10.37,2013-08-28 16:34:00,
2013-08-28 11:39:00,88.6,72.9,30.00,South,188,0.0,0.0,60,0.00,CLR,,0.00,WeatherDisplay:10.37,2013-08-28 16:39:00,
2013-08-28 11:44:00,89.0,73.3,30.00,SSW,207,1.1,0.0,60,0.00,CLR,,0.00,WeatherDisplay:10.37,2013-08-28 16:44:00,
2013-08-28 11:49:00,89.9,72.6,30.00,South,189,4.6,4.6,57,0.00,CLR,,0.00,WeatherDisplay:10.37,2013-08-28 16:49:00,
2013-08-28 11:54:00,90.5,73.2,30.00,SE,144,0.0,0.0,57,0.00,CLR,,0.00,WeatherDisplay:10.37,2013-08-28 16:54:00,
2013-08-28 11:59:00,90.7,72.3,30.00,SE,142,0.0,4.0,55,0.00,CLR,,0.00,WeatherDisplay:10.37,2013-08-28 16:59:00,
2013-08-28 12:04:00,90.7,71.8,30.00,SSW,198,3.5,3.5,54,0.00,CLR,,0.00,WeatherDisplay:10.37,2013-08-28 17:04:00,
2013-08-28 12:09:00,90.7,72.8,30.01,SSW,205,3.5,3.5,56,0.00,CLR,,0.00,WeatherDisplay:10.37,2013-08-28 17:09:00,
2013-08-28 12:14:00,90.5,71.6,30.00,South,189,6.9,6.9,54,0.00,CLR,,0.00,WeatherDisplay:10.37,2013-08-28 17:14:00,
2013-08-28 12:19:00,90.5,72.1,30.00,SSW,197,1.1,1.1,55,0.00,CLR,,0.00,WeatherDisplay:10.37,2013-08-28 17:19:00,
2013-08-28 12:24:00,90.5,72.1,30.00,SW,222,0.0,0.2,55,0.00,CLR,,0.00,WeatherDisplay:10.37,2013-08-28 17:24:00,
2013-08-28 12:29:00,90.5,72.7,30.00,SSW,204,1.1,1.1,56,0.00,CLR,,0.00,WeatherDisplay:10.37,2013-08-28 17:29:00,
2013-08-28 12:34:00,90.7,73.9,29.99,SSW,204,1.1,1.1,58,0.00,CLR,,0.00,WeatherDisplay:10.37,2013-08-28 17:34:00,
2013-08-28 12:39:00,90.7,72.3,29.99,South,180,5.8,5.8,55,0.00,CLR,,0.00,WeatherDisplay:10.37,2013-08-28 17:39:00,
2013-08-28 12:44:00,90.7,72.3,29.99,South,184,4.6,4.6,55,0.00,CLR,,0.00,WeatherDisplay:10.37,2013-08-28 17:44:00,
2013-08-28 12:49:00,90.1,72.3,29.99,South,190,3.5,3.5,56,0.00,CLR,,0.00,WeatherDisplay:10.37,2013-08-28 17:49:00,
2013-08-28 12:54:00,90.3,73.0,29.99,South,186,1.1,1.1,57,0.00,CLR,,0.00,WeatherDisplay:10.37,2013-08-28 17:54:00,
2013-08-28 12:59:00,90.7,72.3,29.99,South,190,0.0,5.0,55,0.00,CLR,,0.00,WeatherDisplay:10.37,2013-08-28 17:59:00,
2013-08-28 13:04:00,90.7,70.7,30.00,SSW,199,0.0,0.0,52,0.00,CLR,,0.00,WeatherDisplay:10.37,2013-08-28 18:04:00,
2013-08-28 13:09:00,91.6,72.6,30.00,NE,51,3.5,3.5,54,0.00,CLR,,0.00,WeatherDisplay:10.37,2013-08-28 18:09:00,
2013-08-28 13:14:00,91.6,71.5,30.00,NE,38,1.1,1.1,52,0.00,CLR,,0.00,WeatherDisplay:10.37,2013-08-28 18:14:00,
2013-08-28 13:19:00,91.6,73.1,30.00,SSW,194,1.1,1.1,55,0.00,CLR,,0.00,WeatherDisplay:10.37,2013-08-28 18:19:00,
2013-08-28 13:24:00,92.1,71.9,30.00,East,81,1.1,1.1,52,0.00,CLR,,0.00,WeatherDisplay:10.37,2013-08-28 18:24:00,
2013-08-28 13:29:00,92.1,72.5,30.00,East,83,0.0,0.0,53,0.00,CLR,,0.00,WeatherDisplay:10.37,2013-08-28 18:29:00,
2013-08-28 13:34:00,91.6,72.6,30.00,ESE,113,1.1,0.0,54,0.00,CLR,,0.00,WeatherDisplay:10.37,2013-08-28 18:34:00,
2013-08-28 13:39:00,91.6,72.6,30.00,ESE,113,1.1,0.0,54,0.00,CLR,,0.00,WeatherDisplay:10.37,2013-08-28 18:39:00,
2013-08-28 13:44:00,91.8,71.7,30.00,South,178,1.1,0.0,52,0.00,CLR,,0.00,WeatherDisplay:10.37,2013-08-28 18:44:00,
2013-08-28 13:49:00,91.8,72.8,30.00,SSW,192,1.1,1.1,54,0.00,CLR,,0.00,WeatherDisplay:10.37,2013-08-28 18:49:00,
2013-08-28 13:54:00,92.1,71.4,30.00,South,187,2.3,2.3,51,0.00,CLR,,0.00,WeatherDisplay:10.37,2013-08-28 18:54:00,
2013-08-28 13:59:00,91.7,71.0,30.00,South,187,2.0,6.0,51,0.00,CLR,,0.00,WeatherDisplay:10.37,2013-08-28 18:59:00,
2013-08-28 14:04:00,91.6,71.5,29.99,South,180,5.8,5.8,52,0.00,CLR,,0.00,WeatherDisplay:10.37,2013-08-28 19:04:00,
2013-08-28 14:09:00,91.8,71.7,29.99,South,180,2.3,2.3,52,0.00,CLR,,0.00,WeatherDisplay:10.37,2013-08-28 19:09:00,
2013-08-28 14:14:00,91.6,70.9,29.99,SSW,209,9.2,9.2,51,0.00,CLR,,0.00,WeatherDisplay:10.37,2013-08-28 19:14:00,
2013-08-28 14:19:00,91.4,72.4,30.00,SSW,211,0.0,0.0,54,0.00,CLR,,0.00,WeatherDisplay:10.37,2013-08-28 19:19:00,
2013-08-28 14:24:00,91.8,71.7,30.00,SSW,211,0.0,0.0,52,0.00,CLR,,0.00,WeatherDisplay:10.37,2013-08-28 19:24:00,
2013-08-28 14:29:00,91.6,71.5,30.00,SSE,163,3.5,3.5,52,0.00,CLR,,0.00,WeatherDisplay:10.37,2013-08-28 19:29:00,
2013-08-28 14:34:00,91.6,71.5,30.00,SSE,167,1.1,0.0,52,0.00,CLR,,0.00,WeatherDisplay:10.37,2013-08-28 19:34:00,
2013-08-28 14:39:00,91.6,71.5,30.00,SSE,165,4.6,4.6,52,0.00,CLR,,0.00,WeatherDisplay:10.37,2013-08-28 19:39:00,
2013-08-28 14:44:00,91.0,72.0,29.98,SW,221,6.0,6.0,54,0.00,CLR,,0.00,WeatherDisplay:10.37,2013-08-28 19:44:00,
2013-08-28 14:49:00,90.1,71.8,29.98,SW,223,3.5,3.5,55,0.00,CLR,,0.00,WeatherDisplay:10.37,2013-08-28 19:49:00,
2013-08-28 14:54:00,90.1,71.8,29.98,SW,221,0.0,0.0,55,0.00,CLR,,0.00,WeatherDisplay:10.37,2013-08-28 19:54:00,
2013-08-28 14:59:00,90.3,73.0,29.98,SW,222,0.0,4.0,57,0.00,CLR,,0.00,WeatherDisplay:10.37,2013-08-28 19:59:00,
2013-08-28 15:04:00,90.3,72.5,29.99,WSW,245,1.1,1.1,56,0.00,CLR,,0.00,WeatherDisplay:10.37,2013-08-28 20:04:00,
2013-08-28 15:09:00,91.2,72.8,29.99,SW,230,2.3,2.3,55,0.00,CLR,,0.00,WeatherDisplay:10.37,2013-08-28 20:09:00,
2013-08-28 15:14:00,92.3,73.2,29.99,SW,229,1.1,0.0,54,0.00,CLR,,0.00,WeatherDisplay:10.37,2013-08-28 20:14:00,
2013-08-28 15:19:00,92.9,72.1,29.99,South,180,3.5,3.5,51,0.00,CLR,,0.00,WeatherDisplay:10.37,2013-08-28 20:19:00,
2013-08-28 15:24:00,93.8,72.3,29.99,South,183,2.3,2.3,50,0.00,CLR,,0.00,WeatherDisplay:10.37,2013-08-28 20:24:00,
2013-08-28 15:29:00,93.8,71.7,29.99,SSW,203,3.5,3.5,49,0.00,CLR,,0.00,WeatherDisplay:10.37,2013-08-28 20:29:00,
2013-08-28 15:34:00,93.6,72.7,29.99,South,184,6.0,0.0,51,0.00,CLR,,0.00,WeatherDisplay:10.37,2013-08-28 20:34:00,
2013-08-28 15:39:00,93.6,71.0,29.99,South,184,2.3,2.3,48,0.00,CLR,,0.00,WeatherDisplay:10.37,2013-08-28 20:39:00,
2013-08-28 15:44:00,93.4,71.4,29.98,South,184,2.3,2.3,49,0.00,CLR,,0.00,WeatherDisplay:10.37,2013-08-28 20:44:00,
2013-08-28 15:49:00,92.7,70.1,29.98,South,184,3.5,3.5,48,0.00,CLR,,0.00,WeatherDisplay:10.37,2013-08-28 20:49:00,
2013-08-28 15:54:00,92.3,72.1,29.98,South,184,0.0,0.0,52,0.00,CLR,,0.00,WeatherDisplay:10.37,2013-08-28 20:54:00,
2013-08-28 15:59:00,92.1,71.4,29.98,South,184,0.0,2.0,51,0.00,CLR,,0.00,WeatherDisplay:10.37,2013-08-28 20:59:00,
2013-08-28 16:04:00,92.1,70.2,29.98,South,184,4.6,4.6,49,0.00,CLR,,0.00,WeatherDisplay:10.37,2013-08-28 21:04:00,
2013-08-28 16:09:00,92.3,72.1,29.98,SSE,168,1.1,1.1,52,0.00,CLR,,0.00,WeatherDisplay:10.37,2013-08-28 21:09:00,
2013-08-28 16:14:00,92.3,71.6,29.98,ENE,60,3.5,3.5,51,0.00,CLR,,0.00,WeatherDisplay:10.37,2013-08-28 21:14:00,
2013-08-28 16:19:00,91.8,71.1,29.97,NE,53,1.1,1.1,51,0.00,CLR,,0.00,WeatherDisplay:10.37,2013-08-28 21:19:00,
2013-08-28 16:24:00,91.2,71.7,29.97,NE,53,0.0,0.0,53,0.00,CLR,,0.00,WeatherDisplay:10.37,2013-08-28 21:24:00,
2013-08-28 16:29:00,91.0,72.0,29.97,NE,53,0.0,0.0,54,0.00,CLR,,0.00,WeatherDisplay:10.37,2013-08-28 21:29:00,
2013-08-28 16:34:00,90.5,71.0,29.98,NE,53,0.0,0.0,53,0.00,CLR,,0.00,WeatherDisplay:10.37,2013-08-28 21:34:00,
2013-08-28 16:39:00,90.1,71.8,29.98,ESE,116,1.1,0.0,55,0.00,CLR,,0.00,WeatherDisplay:10.37,2013-08-28 21:39:00,
2013-08-28 16:44:00,89.5,71.7,29.98,ESE,116,0.0,0.0,56,0.00,CLR,,0.00,WeatherDisplay:10.37,2013-08-28 21:44:00,
2013-08-28 16:49:00,88.8,71.1,29.98,ESE,116,0.0,0.0,56,0.00,CLR,,0.00,WeatherDisplay:10.37,2013-08-28 21:49:00,
2013-08-28 16:54:00,88.2,71.0,29.98,ESE,116,1.1,0.0,57,0.00,CLR,,0.00,WeatherDisplay:10.37,2013-08-28 21:54:00,
2013-08-28 16:59:00,87.8,71.7,29.98,South,176,1.0,5.0,59,0.00,CLR,,0.00,WeatherDisplay:10.37,2013-08-28 21:59:00,
2013-08-28 17:04:00,87.2,71.6,29.97,South,188,1.1,0.0,60,0.00,CLR,,0.00,WeatherDisplay:10.37,2013-08-28 22:04:00,
2013-08-28 17:09:00,87.2,71.6,29.97,South,188,1.1,0.0,60,0.00,CLR,,0.00,WeatherDisplay:10.37,2013-08-28 22:09:00,
2013-08-28 17:14:00,87.0,71.4,29.97,South,188,1.1,1.1,60,0.00,CLR,,0.00,WeatherDisplay:10.37,2013-08-28 22:14:00,
2013-08-28 17:19:00,87.0,71.4,29.96,South,188,1.1,1.1,60,0.00,CLR,,0.00,WeatherDisplay:10.37,2013-08-28 22:19:00,
2013-08-28 17:24:00,87.0,71.9,29.96,South,188,1.1,0.0,61,0.00,CLR,,0.00,WeatherDisplay:10.37,2013-08-28 22:24:00,
2013-08-28 17:29:00,87.0,71.9,29.96,South,188,0.0,0.0,61,0.00,CLR,,0.00,WeatherDisplay:10.37,2013-08-28 22:29:00,
2013-08-28 17:34:00,86.7,72.1,29.97,South,188,0.0,0.0,62,0.00,CLR,,0.00,WeatherDisplay:10.37,2013-08-28 22:34:00,
2013-08-28 17:39:00,86.5,72.4,29.97,South,188,0.0,0.0,63,0.00,CLR,,0.00,WeatherDisplay:10.37,2013-08-28 22:39:00,
2013-08-28 17:44:00,86.5,72.4,29.97,South,188,1.1,1.1,63,0.00,CLR,,0.00,WeatherDisplay:10.37,2013-08-28 22:44:00,
2013-08-28 17:49:00,86.3,72.2,29.98,South,188,0.0,0.0,63,0.00,CLR,,0.00,WeatherDisplay:10.37,2013-08-28 22:49:00,
2013-08-28 17:54:00,85.9,71.8,29.98,South,173,0.0,0.0,63,0.00,CLR,,0.00,WeatherDisplay:10.37,2013-08-28 22:54:00,
2013-08-28 17:59:00,85.7,72.1,29.98,South,178,0.0,0.0,64,0.00,CLR,,0.00,WeatherDisplay:10.37,2013-08-28 22:59:00,
2013-08-28 18:04:00,85.5,71.9,29.98,South,173,0.0,0.0,64,0.00,CLR,,0.00,WeatherDisplay:10.37,2013-08-28 23:04:00,
2013-08-28 18:09:00,85.3,72.2,29.98,South,173,0.0,0.0,65,0.00,CLR,,0.00,WeatherDisplay:10.37,2013-08-28 23:09:00,
2013-08-28 18:14:00,85.3,72.2,29.98,South,173,0.0,0.0,65,0.00,CLR,,0.00,WeatherDisplay:10.37,2013-08-28 23:14:00,
2013-08-28 18:19:00,85.1,72.5,29.97,South,173,0.0,0.0,66,0.00,CLR,,0.00,WeatherDisplay:10.37,2013-08-28 23:19:00,
2013-08-28 18:24:00,84.9,72.3,29.97,South,173,0.0,0.0,66,0.00,CLR,,0.00,WeatherDisplay:10.37,2013-08-28 23:24:00,
2013-08-28 18:29:00,84.7,72.5,29.97,South,173,0.0,0.0,67,0.00,CLR,,0.00,WeatherDisplay:10.37,2013-08-28 23:29:00,
2013-08-28 18:34:00,84.5,72.3,29.97,South,173,0.0,0.0,67,0.00,-RA,,0.00,WeatherDisplay:10.37,2013-08-28 23:34:00,
2013-08-28 18:39:00,84.3,72.1,29.97,South,173,0.0,0.0,67,0.00,-RA,,0.00,WeatherDisplay:10.37,2013-08-28 23:39:00,
2013-08-28 18:44:00,84.3,72.6,29.97,South,173,0.0,0.0,68,0.00,-RA,,0.00,WeatherDisplay:10.37,2013-08-28 23:44:00,
2013-08-28 18:49:00,84.3,72.6,29.97,South,173,0.0,0.0,68,0.00,CLR,,0.00,WeatherDisplay:10.37,2013-08-28 23:49:00,
2013-08-28 18:54:00,84.3,72.6,29.97,South,173,0.0,0.0,68,0.00,CLR,,0.00,WeatherDisplay:10.37,2013-08-28 23:54:00,
2013-08-28 18:59:00,84.1,72.4,29.97,South,173,0.0,0.0,68,0.00,CLR,,0.00,WeatherDisplay:10.37,2013-08-28 23:59:00,
2013-08-28 19:04:00,84.0,72.7,29.98,South,173,0.0,0.0,69,0.00,CLR,,0.00,WeatherDisplay:10.37,2013-08-29 00:04:00,
2013-08-28 19:09:00,83.8,73.0,29.98,South,173,0.0,0.0,70,0.00,CLR,,0.00,WeatherDisplay:10.37,2013-08-29 00:09:00,
2013-08-28 19:14:00,83.6,72.8,29.98,South,173,0.0,0.0,70,0.00,CLR,,0.00,WeatherDisplay:10.37,2013-08-29 00:14:00,
2013-08-28 19:19:00,83.4,72.6,29.98,South,173,0.0,0.0,70,0.00,CLR,,0.00,WeatherDisplay:10.37,2013-08-29 00:19:00,
2013-08-28 19:24:00,83.2,72.4,29.98,South,173,0.0,0.0,70,0.00,CLR,,0.00,WeatherDisplay:10.37,2013-08-29 00:24:00,
2013-08-28 19:29:00,83.2,72.8,29.98,South,173,0.0,0.0,71,0.00,CLR,,0.00,WeatherDisplay:10.37,2013-08-29 00:29:00,
2013-08-28 19:34:00,83.0,72.6,29.98,South,173,1.0,0.0,71,0.00,CLR,,0.00,WeatherDisplay:10.37,2013-08-29 00:34:00,
2013-08-28 19:39:00,82.6,72.2,29.98,South,173,0.0,0.0,71,0.00,CLR,,0.00,WeatherDisplay:10.37,2013-08-29 00:39:00,
2013-08-28 19:44:00,82.2,72.3,29.98,South,173,1.1,0.0,72,0.00,CLR,,0.00,WeatherDisplay:10.37,2013-08-29 00:44:00,
2013-08-28 19:49:00,82.0,72.5,29.98,South,173,0.0,0.0,73,0.00,CLR,,0.00,WeatherDisplay:10.37,2013-08-29 00:49:00,
2013-08-28 19:54:00,81.6,72.1,29.98,South,173,0.0,0.0,73,0.00,CLR,,0.00,WeatherDisplay:10.37,2013-08-29 00:54:00,
2013-08-28 19:59:00,81.2,71.7,29.98,South,173,0.0,0.0,73,0.00,CLR,,0.00,WeatherDisplay:10.37,2013-08-29 00:59:00,
2013-08-28 20:04:00,81.1,72.0,29.98,South,173,0.0,0.0,74,0.00,CLR,,0.00,WeatherDisplay:10.37,2013-08-29 01:04:00,
2013-08-28 20:09:00,80.7,72.0,29.98,South,173,0.0,0.0,75,0.00,CLR,,0.00,WeatherDisplay:10.37,2013-08-29 01:09:00,
2013-08-28 20:14:00,80.3,71.6,29.98,South,173,0.0,0.0,75,0.00,CLR,,0.00,WeatherDisplay:10.37,2013-08-29 01:14:00,
2013-08-28 20:19:00,79.9,71.7,29.98,South,173,0.0,0.0,76,0.00,CLR,,0.00,WeatherDisplay:10.37,2013-08-29 01:19:00,
2013-08-28 20:24:00,79.8,71.6,29.98,South,173,0.0,0.0,76,0.00,CLR,,0.00,WeatherDisplay:10.37,2013-08-29 01:24:00,
2013-08-28 20:29:00,79.4,71.6,29.98,South,173,0.0,0.0,77,0.00,CLR,,0.00,WeatherDisplay:10.37,2013-08-29 01:29:00,
2013-08-28 20:34:00,79.2,71.4,29.99,South,173,0.0,0.0,77,0.00,CLR,,0.00,WeatherDisplay:10.37,2013-08-29 01:34:00,
2013-08-28 20:39:00,79.0,71.6,29.99,South,173,2.3,2.3,78,0.00,CLR,,0.00,WeatherDisplay:10.37,2013-08-29 01:39:00,
2013-08-28 20:44:00,78.8,71.4,29.99,South,173,0.0,0.0,78,0.00,CLR,,0.00,WeatherDisplay:10.37,2013-08-29 01:44:00,
2013-08-28 20:49:00,78.6,71.5,29.99,South,173,0.0,0.0,79,0.00,CLR,,0.00,WeatherDisplay:10.37,2013-08-29 01:49:00,
2013-08-28 20:54:00,78.6,71.5,29.99,South,173,0.0,0.0,79,0.00,CLR,,0.00,WeatherDisplay:10.37,2013-08-29 01:54:00,
2013-08-28 20:59:00,78.5,71.4,29.99,South,173,0.0,0.0,79,0.00,CLR,,0.00,WeatherDisplay:10.37,2013-08-29 01:59:00,
2013-08-28 21:04:00,78.3,71.2,29.99,South,173,0.0,0.0,79,0.00,CLR,,0.00,WeatherDisplay:10.37,2013-08-29 02:04:00,
2013-08-28 21:09:00,78.3,71.2,29.99,South,173,0.0,0.0,79,0.00,CLR,,0.00,WeatherDisplay:10.37,2013-08-29 02:09:00,
2013-08-28 21:14:00,78.1,71.1,30.00,South,173,1.1,1.1,79,0.00,CLR,,0.00,WeatherDisplay:10.37,2013-08-29 02:14:00,
2013-08-28 21:19:00,78.1,71.1,30.00,South,173,5.0,5.0,79,0.00,CLR,,0.00,WeatherDisplay:10.37,2013-08-29 02:19:00,
2013-08-28 21:24:00,78.3,71.2,30.00,South,173,1.1,0.0,79,0.00,CLR,,0.00,WeatherDisplay:10.37,2013-08-29 02:24:00,
2013-08-28 21:29:00,78.3,70.9,30.00,South,173,1.1,1.1,78,0.00,CLR,,0.00,WeatherDisplay:10.37,2013-08-29 02:29:00,
2013-08-28 21:34:00,78.3,70.9,30.00,South,173,1.1,1.1,78,0.00,CLR,,0.00,WeatherDisplay:10.37,2013-08-29 02:34:00,
2013-08-28 21:39:00,78.1,70.7,30.00,South,173,3.5,3.5,78,0.00,CLR,,0.00,WeatherDisplay:10.37,2013-08-29 02:39:00,
2013-08-28 21:44:00,78.1,71.1,29.99,South,173,2.3,2.3,79,0.00,CLR,,0.00,WeatherDisplay:10.37,2013-08-29 02:44:00,
2013-08-28 21:49:00,77.9,70.9,29.99,South,173,2.3,2.3,79,0.00,CLR,,0.00,WeatherDisplay:10.37,2013-08-29 02:49:00,
2013-08-28 21:54:00,77.7,70.7,29.99,South,173,0.0,0.0,79,0.00,CLR,,0.00,WeatherDisplay:10.37,2013-08-29 02:54:00,
2013-08-28 21:59:00,77.6,70.9,29.99,South,173,1.1,1.1,80,0.00,CLR,,0.00,WeatherDisplay:10.37,2013-08-29 02:59:00,
2013-08-28 22:04:00,77.4,70.7,29.99,South,173,3.5,3.5,80,0.00,CLR,,0.00,WeatherDisplay:10.37,2013-08-29 03:04:00,
2013-08-28 22:09:00,77.4,70.7,29.99,South,173,1.1,1.1,80,0.00,CLR,,0.00,WeatherDisplay:10.37,2013-08-29 03:09:00,
2013-08-28 22:14:00,77.2,70.9,29.99,South,174,3.5,3.5,81,0.00,CLR,,0.00,WeatherDisplay:10.37,2013-08-29 03:14:00,
2013-08-28 22:19:00,77.0,70.7,29.99,South,174,0.0,0.0,81,0.00,CLR,,0.00,WeatherDisplay:10.37,2013-08-29 03:19:00,
2013-08-28 22:24:00,76.8,70.5,29.99,South,174,2.3,2.3,81,0.00,CLR,,0.00,WeatherDisplay:10.37,2013-08-29 03:24:00,
2013-08-28 22:29:00,76.8,70.5,30.00,South,174,1.1,1.1,81,0.00,CLR,,0.00,WeatherDisplay:10.37,2013-08-29 03:29:00,
2013-08-28 22:34:00,76.7,70.8,30.00,South,174,0.0,0.1,82,0.00,CLR,,0.00,WeatherDisplay:10.37,2013-08-29 03:34:00,
2013-08-28 22:39:00,76.5,70.6,30.00,South,174,1.1,0.0,82,0.00,CLR,,0.00,WeatherDisplay:10.37,2013-08-29 03:39:00,
2013-08-28 22:44:00,76.3,70.4,30.00,South,174,1.0,0.0,82,0.00,CLR,,0.00,WeatherDisplay:10.37,2013-08-29 03:44:00,
2013-08-28 22:49:00,76.3,70.8,30.00,South,174,3.5,3.5,83,0.00,CLR,,0.00,WeatherDisplay:10.37,2013-08-29 03:49:00,
2013-08-28 22:54:00,76.1,70.6,30.00,South,174,2.3,0.0,83,0.00,CLR,,0.00,WeatherDisplay:10.37,2013-08-29 03:54:00,
2013-08-28 22:59:00,76.0,70.5,30.00,South,174,0.0,0.0,83,0.00,CLR,,0.00,WeatherDisplay:10.37,2013-08-29 03:59:00,
2013-08-28 23:01:00,76.0,70.5,29.99,South,174,0.0,0.0,83,0.00,CLR,,0.00,WeatherDisplay:10.37,2013-08-29 04:01:00,
2013-08-28 23:02:00,76.0,70.5,29.99,South,174,0.0,0.0,83,0.00,CLR,,0.00,WeatherDisplay:10.37,2013-08-29 04:02:00,
2013-08-28 23:07:00,76.0,70.5,29.99,South,174,2.3,0.0,83,0.00,CLR,,0.00,WeatherDisplay:10.37,2013-08-29 04:07:00,
2013-08-28 23:12:00,76.0,70.8,29.99,South,174,0.0,0.0,84,0.00,CLR,,0.00,WeatherDisplay:10.37,2013-08-29 04:12:00,
2013-08-28 23:17:00,75.8,70.6,29.99,South,174,1.1,1.1,84,0.00,CLR,,0.00,WeatherDisplay:10.37,2013-08-29 04:17:00,
2013-08-28 23:22:00,75.8,70.6,29.99,South,174,2.3,2.3,84,0.00,CLR,,0.00,WeatherDisplay:10.37,2013-08-29 04:22:00,
2013-08-28 23:27:00,75.8,70.6,29.99,South,174,1.1,1.1,84,0.00,CLR,,0.00,WeatherDisplay:10.37,2013-08-29 04:27:00,
2013-08-28 23:32:00,75.8,70.6,29.99,South,174,0.0,0.0,84,0.00,CLR,,0.00,WeatherDisplay:10.37,2013-08-29 04:32:00,
2013-08-28 23:37:00,75.6,70.4,29.99,South,174,1.1,0.0,84,0.00,CLR,,0.00,WeatherDisplay:10.37,2013-08-29 04:37:00,
2013-08-28 23:42:00,75.3,70.1,29.99,South,174,1.1,0.0,84,0.00,CLR,,0.00,WeatherDisplay:10.37,2013-08-29 04:42:00,
2013-08-28 23:47:00,75.1,70.3,29.99,South,174,0.0,0.0,85,0.00,CLR,,0.00,WeatherDisplay:10.37,2013-08-29 04:47:00,
2013-08-28 23:52:00,74.9,70.1,29.99,South,174,0.0,0.0,85,0.00,CLR,,0.00,WeatherDisplay:10.37,2013-08-29 04:52:00,
2013-08-28 23:57:00,74.9,70.4,29.99,South,174,0.0,0.0,86,0.00,CLR,,0.00,WeatherDisplay:10.37,2013-08-29 04:57:00,